Regional Weather Roundup
Issued by NWS

Home | Current Version | Previous Version | Graphics & Text | Print | Product List | Glossary On
Versions: 1 2 3 4 5 6 7 8 9 10 11 12 13 14 15 16 17 18 19 20 21 22 23 24 25 26 27 28 29 30 31 32 33 34 35 36 37 38 39 40 41 42 43 44 45 46 47 48 49 50
000
ASUS45 KBOU 192307
RWRCO

WEATHER ROUNDUP FOR COLORADO
NATIONAL WEATHER SERVICE DENVER/BOULDER CO
500 PM MDT WED JUL 19 2017

NOTE: "FAIR" INDICATES FEW OR NO CLOUDS BELOW 12000 FEET WITH NO
SIGNIFICANT WEATHER AND/OR OBSTRUCTIONS TO VISIBILITY.

COZ001>005-013-030-031-200000-
...NORTHWEST COLORADO...

CITY           SKY/WX    TMP DP  RH WIND       PRES   REMARKS
CRAIG          LGT RAIN  72  49  44 E23G39    30.24S
HAYDEN         CLOUDY    66  48  52 W17       30.27R THUNDER
MEEKER         TSTM      64  59  83 N14       30.26F
RABBIT EARS PA FAIR      64  43  45 W5        30.60S
STEAMBOAT SPGS FAIR      79  49  34 CALM      30.26F
WALDEN         PTSUNNY   77  45  31 S9        30.36S
$$

COZ006>008-011-200000-
...WEST CENTRAL VALLEYS...

CITY           SKY/WX    TMP DP  RH WIND       PRES   REMARKS
GRAND JUNCTION FAIR      96  48  19 VRB3      30.04F
MONTROSE       FAIR      83  52  34 S17       30.17F
EAGLE          PTSUNNY   66  57  72 E20       30.31F
RIFLE          FAIR      91  42  18 S9        30.12F
DELTA          FAIR      90  51  26 W10       30.11S
NUCLA          NOT AVBL
$$

COZ017>023-064>068-200000-
...SOUTHWEST COLORADO...

CITY           SKY/WX    TMP DP  RH WIND       PRES   REMARKS
DURANGO        FAIR      88  40  18 SE8       30.23F
CORTEZ         FAIR      94  44  17 SW14G21   30.16F
PAGOSA SPRINGS PTSUNNY   85  40  20 W9G16     30.33F
TELLURIDE      FAIR      69  53  58 CALM      30.50F
WOLF CREEK PAS FAIR      63  37  39 S15G22    30.75F
$$

COZ009-010-012-014-032>034-037-058>063-200000-
...CENTRAL COLORADO...

CITY           SKY/WX    TMP DP  RH WIND       PRES   REMARKS
ASPEN          FAIR      76  49  38 VRB3      30.35F
BUENA VISTA    FAIR      67  49  52 NW21G26   30.38F
COPPER MTN     RAIN      54  41  62 E16       30.72F
BERTHOUD PASS  TSTM      45  32  61 SW9       30.80F
COTTONWOOD PAS FAIR      72  50  46 SE9       30.53F THUNDER
GUNNISON       FAIR      76  50  40 NW9       30.36R
KREMMLING      PTSUNNY   73  50  43 S16G22    30.39R
LEADVILLE      FAIR      58  47  66 NE6       30.52F
SALIDA         PTSUNNY   76  49  38 NW18G24   30.41R
SUNLIGHT       PTSUNNY   63  50  63 E3        30.64F
WILKERSON PASS TSTM      61  41  48 NE7       30.69R
$$

COZ069>075-200000-
...SAN LUIS VALLEY/SANGRE DE CRISTO MOUNTAINS...

CITY           SKY/WX    TMP DP  RH WIND       PRES   REMARKS
ALAMOSA        FAIR      85  44  23 E7        30.30F
DEL NORTE      FAIR      79  53  39 SE9       30.35F
LA VETA PASS   NOT AVBL
SAGUACHE         N/A    N/A N/A N/A MISG        N/A
$$

COZ035-036-038>040-200000-
...NORTHERN COLORADO FRONT RANGE...

CITY           SKY/WX    TMP DP  RH WIND       PRES   REMARKS
DENVER INTL AP PTSUNNY   97  38  13 VRB5      30.07F
DMNS CITY PARK   N/A     93  37  14 NW5       30.08R
AURORA         NOT AVBL
FRONT RANGE AP FAIR      97  34  11 CALM      30.09F
ERIE MUNI ARPT FAIR      87  43  20 NW16G26   30.09R
BOULDER MUN AP LGT RAIN  86  45  23 W15G26    30.12R
CENTENNIAL     PTSUNNY   90  48  23 SE9       30.13S
BROOMFIELD     TSTM      90  45  20 NW18G25   30.14R
FORT COLLINS   FAIR      89  49  25 W16       30.05F
LONGMONT       FAIR      89  45  22 W15G28    30.10R
$$

COZ041-046-047-076>085-087-088-200000-
...PIKES PEAK/PALMER DIVIDE AND SOUTHERN FOOTHILLS...

CITY           SKY/WX    TMP DP  RH WIND       PRES   REMARKS
COLO. SPRINGS  FAIR      92  48  22 S12       30.16F
A. F. ACADEMY  NOT AVBL
SCHRIEVER AFB  NOT AVBL
CHEYENNE MTN   NOT AVBL
ELLICOTT       FAIR       1  32 100 S17G25    30.14F WCI -19
FALCON           N/A     89  45  22 S8        30.24F
FORT CARSON    NOT AVBL
LIMON          FAIR      93  50  23 S16G24    30.10F
MONUMENT HILL  FAIR      81  48  32 S9        30.27R
CANON CITY     SUNNY     99  54  22 E10       30.07F
WALSENBURG     FAIR      97  45  16 SE8       30.14F
TRINIDAD       FAIR      95  42  16 S18G29    30.13F
$$

COZ042>045-048>051-090-091-200000-
...NORTHEAST COLORADO...

CITY           SKY/WX    TMP DP  RH WIND       PRES   REMARKS
GREELEY ARPT   FAIR     100  46  16 CALM      30.01F
AKRON          FAIR     101  47  16 S21G28    30.01F
BURLINGTON     FAIR      98  56  24 S16       30.04F
WRAY           NOT AVBL
YUMA           FAIR      95  59  30 S15G22    29.99F
STERLING       FAIR     104  52  17 CALM      29.93F
HOLYOKE        FAIR      99  57  25 S17       29.96F
FORT MORGAN    FAIR     103  43  12 SE6       29.99F
$$

COZ086-089-092>099-200000-
...SOUTHEAST COLORADO...

CITY           SKY/WX    TMP DP  RH WIND       PRES   REMARKS
PUEBLO         FAIR     102  47  15 S9G21     30.00F
LA JUNTA       FAIR     100  52  19 SE24      30.01F
LAMAR          FAIR      99  54  22 S17       29.99F
SPRINGFIELD      N/A     93  53  25 S18G26    30.09F
$$



USA.gov is the U.S. government's official web portal to all federal, state and local government web resources and services.